Regional Weather Roundup
Issued by NWS

Home | Current Version | Previous Version | Graphics & Text | Print | Product List | Glossary On
Versions: 1 2 3 4 5 6 7 8 9 10 11 12 13 14 15 16 17 18 19 20 21 22 23 24 25 26 27 28 29 30 31 32 33 34 35 36 37 38 39 40 41 42 43 44 45 46 47 48 49 50
000
ASUS44 KMEG 050310
RWRTN
TENNESSEE HOURLY STATE WEATHER ROUNDUP
NATIONAL WEATHER SERVICE MEMPHIS TN
1000 PM CDT FRI SEP 04 2015

TNZ002-004-019-021-049-052-054-088>092-050400-
WEST TENNESSEE

CITY           SKY/WX    TMP DP  RH WIND       PRES   REMARKS
MEMPHIS INTL   PTCLDY    83  71  67 CALM      30.01R
NWS MEMPHIS      N/A     80 N/A N/A MISG        N/A
JACKSON        CLEAR     74  72  93 CALM      30.03R
DYERSBURG      CLEAR     75  72  88 CALM      30.03R
UNION CITY     CLEAR     73  72  94 CALM      30.02R
PARIS          CLEAR     73  70  88 CALM      30.05R
LEXINGTON      CLEAR     72  72 100 CALM      30.03R
$$

TNZ008-025-027-028-033-062-065-066-050400-
NORTH MIDDLE TENNESSEE

CITY           SKY/WX    TMP DP  RH WIND       PRES   REMARKS
NASHVILLE      CLEAR     79  66  64 CALM      30.05R
CLARKSVILLE    CLEAR     75  67  76 N3        30.05R
SMYRNA         CLEAR     32  32 100 CALM      30.06R
COOKEVILLE     CLEAR     70  70 100 CALM      30.08S
CROSSVILLE     CLEAR     72  66  81 CALM      30.14R
$$

TNZ061-075-076-078-094-096-097-050400-
SOUTH MIDDLE TENNESSEE

CITY           SKY/WX    TMP DP  RH WIND       PRES   REMARKS
FAYETTEVILLE   CLEAR     73  70  88 CALM      30.06S
TULLAHOMA      CLEAR     72  68  88 CALM      30.08S
WINCHESTER     CLEAR     70  70 100 CALM      30.07S
MCMINNVILLE    CLEAR     73  73 100 CALM      30.08S
COLUMBIA       CLEAR     75  75 100 CALM      30.04S
SHELBYVILLE    CLEAR     75  72  88 SE3       30.07R
$$

TNZ017-018-042-046-047-050400-
NORTHEAST TENNESSEE

CITY           SKY/WX    TMP DP  RH WIND       PRES   REMARKS
TRI CITIES     PTCLDY    73  66  78 CALM      30.13R
ELIZABETHTON   MOCLDY    72  63  73 E6        30.14S
$$

TNZ012-013-036-069-073-074-050400-
CENTRAL EAST TENNESSEE

CITY           SKY/WX    TMP DP  RH WIND       PRES   REMARKS
KNOXVILLE      PTCLDY    77  67  71 CALM      30.05S
OAK RIDGE      CLEAR     75  70  84 CALM      30.08R
GATLINBURG     CLEAR     73  64  73 CALM      30.07R
MORRISTOWN     CLEAR     75  66  73 E5        30.10S
$$

TNZ083-085-099-050400-
SOUTHEAST TENNESSEE

CITY           SKY/WX    TMP DP  RH WIND       PRES   REMARKS
CHATTANOOGA    PTCLDY    77  70  79 CALM      30.04S
$$

SKY/WX REPORTED AS FAIR MEANS FEW OR NO CLOUDS BELOW
12 THOUSAND FEET.



USA.gov is the U.S. government's official web portal to all federal, state and local government web resources and services.